EN

Hourly Weather Lugo

Today, 30 November, Monday

Time Temperature Precipitation Wind Pressure Humidity
00:00 +7°C° 0 mm 0 mps 724 mmHg 85%
01:00 +7°C° 0 mm 0 mps 724 mmHg 86%
02:00 +6°C° 0 mm 0 mps 724 mmHg 86%
03:00 +6°C° 0 mm 0 mps 724 mmHg 86%
04:00 +6°C° 0 mm 0 mps 724 mmHg 87%
05:00 +6°C° 0 mm 0 mps 725 mmHg 87%
06:00 +6°C° 0 mm 0 mps 725 mmHg 84%
07:00 +7°C° 0 mm 0 mps 725 mmHg 81%
08:00 +7°C° 0 mm 0 mps 726 mmHg 79%
09:00 +9°C° 0 mm 0 mps 726 mmHg 72%
10:00 +13°C° 0 mm 1 mps 726 mmHg 65%
11:00 +15°C° 0 mm 1 mps 727 mmHg 58%
12:00 +15°C° 0 mm 1 mps 727 mmHg 60%
13:00 +15°C° 0 mm 1 mps 726 mmHg 63%
14:00 +15°C° 0 mm 1 mps 726 mmHg 65%
15:00 +13°C° 0 mm 1 mps 726 mmHg 74%
16:00 +11°C° 0 mm 1 mps 726 mmHg 84%
17:00 +9°C° 0 mm 1 mps 726 mmHg 94%
18:00 +9°C° 0 mm 1 mps 727 mmHg 94%
19:00 +8°C° 0 mm 1 mps 727 mmHg 94%
20:00 +8°C° 0 mm 1 mps 727 mmHg 94%
21:00 +8°C° 0 mm 1 mps 727 mmHg 94%
22:00 +8°C° 0 mm 1 mps 727 mmHg 94%
23:00 +7°C° 0 mm 1 mps 727 mmHg 93%

Tomorrow, 1 December, Tuesday

Time Temperature Precipitation Wind Pressure Humidity
00:00 +7°C° 0 mm 1 mps 727 mmHg 93%
01:00 +7°C° 0 mm 1 mps 727 mmHg 93%
02:00 +6°C° 0 mm 0 mps 727 mmHg 93%
03:00 +6°C° 0 mm 1 mps 727 mmHg 93%
04:00 +6°C° 0 mm 1 mps 727 mmHg 93%
05:00 +6°C° 0 mm 1 mps 727 mmHg 93%
06:00 +6°C° 0 mm 1 mps 727 mmHg 90%
07:00 +7°C° 0 mm 1 mps 727 mmHg 88%
08:00 +6°C° 0 mm 0 mps 727 mmHg 86%
09:00 +9°C° 0 mm 1 mps 727 mmHg 76%
10:00 +12°C° 0 mm 1 mps 728 mmHg 67%
11:00 +14°C° 0 mm 1 mps 728 mmHg 58%
12:00 +14°C° 0 mm 1 mps 727 mmHg 58%
13:00 +14°C° 0 mm 1 mps 727 mmHg 59%
14:00 +14°C° 0 mm 2 mps 727 mmHg 60%
15:00 +12°C° 0 mm 2 mps 727 mmHg 68%
16:00 +10°C° 0 mm 1 mps 726 mmHg 77%
17:00 +8°C° 0 mm 1 mps 726 mmHg 86%
18:00 +8°C° 0 mm 1 mps 726 mmHg 88%
19:00 +7°C° 0 mm 1 mps 726 mmHg 90%
20:00 +7°C° 0 mm 1 mps 726 mmHg 92%
21:00 +7°C° 0 mm 1 mps 726 mmHg 93%
22:00 +7°C° 0 mm 1 mps 726 mmHg 94%
23:00 +7°C° 0 mm 1 mps 726 mmHg 95%

Day after tomorrow, 2 December, Wednesday

Time Temperature Precipitation Wind Pressure Humidity
00:00 +8°C° 0 mm 1 mps 726 mmHg 95%
01:00 +8°C° 0 mm 1 mps 725 mmHg 94%
02:00 +8°C° 0 mm 1 mps 725 mmHg 94%
03:00 +9°C° 0 mm 1 mps 725 mmHg 94%
04:00 +9°C° 0 mm 1 mps 725 mmHg 95%
05:00 +8°C° 0 mm 2 mps 725 mmHg 95%
06:00 +8°C° 0 mm 2 mps 725 mmHg 94%
07:00 +7°C° 0 mm 2 mps 725 mmHg 93%
08:00 +7°C° 0 mm 2 mps 725 mmHg 92%
09:00 +8°C° 0 mm 2 mps 725 mmHg 85%
10:00 +9°C° 0 mm 3 mps 725 mmHg 78%
11:00 +10°C° 0 mm 3 mps 725 mmHg 70%
12:00 +10°C° 0 mm 3 mps 724 mmHg 69%
13:00 +9°C° 0 mm 3 mps 724 mmHg 68%
14:00 +9°C° 0 mm 3 mps 723 mmHg 67%
15:00 +8°C° 0 mm 2 mps 724 mmHg 74%
16:00 +6°C° 0 mm 2 mps 724 mmHg 82%
17:00 +6°C° 0 mm 1 mps 724 mmHg 89%
18:00 +5°C° 0 mm 1 mps 724 mmHg 91%
19:00 +5°C° 0 mm 1 mps 724 mmHg 93%
20:00 +4°C° 0 mm 1 mps 723 mmHg 95%
21:00 +4°C° 0 mm 1 mps 723 mmHg 95%
22:00 +4°C° 0 mm 1 mps 723 mmHg 95%
23:00 +4°C° 0 mm 1 mps 723 mmHg 95%

3 December, Thursday

Time Temperature Precipitation Wind Pressure Humidity
00:00 +2°C° 0 mm 0 mps 723 mmHg 95%
01:00 +2°C° 0 mm 0 mps 722 mmHg 95%
02:00 +2°C° 0 mm 0 mps 721 mmHg 95%
03:00 +2°C° 0 mm 0 mps 721 mmHg 95%
04:00 +2°C° 0 mm 0 mps 720 mmHg 95%
05:00 +1°C° 0 mm 0 mps 719 mmHg 95%
06:00 +2°C° 0 mm 0 mps 719 mmHg 92%
07:00 +2°C° 0 mm 0 mps 719 mmHg 89%
08:00 +3°C° 0 mm 0 mps 719 mmHg 87%
09:00 +6°C° 0 mm 1 mps 718 mmHg 81%
10:00 +7°C° 0 mm 2 mps 718 mmHg 75%
11:00 +9°C° 0 mm 2 mps 717 mmHg 69%
12:00 +9°C° 0.1 mm 2 mps 716 mmHg 74%
13:00 +8°C° 0.1 mm 3 mps 715 mmHg 79%
14:00 +8°C° 0.1 mm 3 mps 715 mmHg 84%
15:00 +7°C° 0.1 mm 3 mps 714 mmHg 86%
16:00 +6°C° 0.1 mm 4 mps 713 mmHg 88%
17:00 +5°C° 0.1 mm 4 mps 713 mmHg 90%
18:00 +6°C° 0.4 mm 4 mps 712 mmHg 91%
19:00 +6°C° 0.4 mm 4 mps 712 mmHg 92%
20:00 +6°C° 0.4 mm 5 mps 711 mmHg 93%
21:00 +5°C° 0.7 mm 4 mps 711 mmHg 92%
22:00 +5°C° 0.7 mm 4 mps 710 mmHg 92%
23:00 +4°C° 0.7 mm 4 mps 710 mmHg 91%

4 December, Friday

Time Temperature Precipitation Wind Pressure Humidity
00:00 +4°C° 0.7 mm 4 mps 710 mmHg 93%
01:00 +3°C° 0.7 mm 4 mps 710 mmHg 95%
02:00 +1°C° 0.7 mm 4 mps 710 mmHg 97%
03:00 +1°C° 0.9 mm 4 mps 710 mmHg 97%
04:00 +2°C° 0.9 mm 3 mps 709 mmHg 97%
05:00 +1°C° 0.9 mm 3 mps 709 mmHg 97%
06:00 +1°C° 1.1 mm 3 mps 709 mmHg 96%
07:00 +1°C° 1.1 mm 3 mps 709 mmHg 95%
08:00 +1°C° 1.1 mm 3 mps 709 mmHg 94%
09:00 +1°C° 0.5 mm 4 mps 709 mmHg 92%
10:00 +1°C° 0.5 mm 4 mps 709 mmHg 91%
11:00 +3°C° 0.5 mm 4 mps 709 mmHg 89%
12:00 +1°C° 0.9 mm 4 mps 709 mmHg 91%
13:00 +1°C° 0.9 mm 4 mps 709 mmHg 94%
14:00 +1°C° 0.9 mm 4 mps 709 mmHg 96%
15:00 +2°C° 0.9 mm 3 mps 709 mmHg 96%
16:00 +1°C° 0.9 mm 3 mps 709 mmHg 97%
17:00 +1°C° 0.9 mm 3 mps 709 mmHg 97%
18:00 +1°C° 0.6 mm 3 mps 710 mmHg 96%
19:00 +1°C° 0.6 mm 3 mps 711 mmHg 96%
20:00 +2°C° 0.6 mm 2 mps 711 mmHg 95%
21:00 +2°C° 0.7 mm 2 mps 711 mmHg 96%
22:00 +1°C° 0.7 mm 3 mps 712 mmHg 96%
23:00 +1°C° 0.7 mm 3 mps 712 mmHg 96%

5 December, Saturday

Time Temperature Precipitation Wind Pressure Humidity
00:00 +1°C° 0.5 mm 3 mps 712 mmHg 96%
01:00 +2°C° 0.5 mm 2 mps 712 mmHg 96%
02:00 +2°C° 0.5 mm 2 mps 713 mmHg 96%
03:00 +2°C° 0.3 mm 2 mps 713 mmHg 96%
04:00 +2°C° 0.3 mm 2 mps 713 mmHg 96%
05:00 +2°C° 0.3 mm 2 mps 714 mmHg 97%
06:00 +2°C° 0.2 mm 2 mps 714 mmHg 96%
07:00 +3°C° 0.2 mm 2 mps 715 mmHg 96%
08:00 +3°C° 0.2 mm 2 mps 715 mmHg 96%
09:00 +3°C° 0.3 mm 2 mps 716 mmHg 95%
10:00 +3°C° 0.3 mm 3 mps 716 mmHg 95%
11:00 +3°C° 0.3 mm 3 mps 716 mmHg 95%
12:00 +3°C° 0.3 mm 3 mps 716 mmHg 94%
13:00 +3°C° 0.3 mm 3 mps 716 mmHg 94%
14:00 +4°C° 0.3 mm 3 mps 716 mmHg 93%
15:00 +3°C° 0.2 mm 3 mps 716 mmHg 94%
16:00 +2°C° 0.2 mm 3 mps 716 mmHg 95%
17:00 +3°C° 0.2 mm 2 mps 716 mmHg 96%
18:00 +3°C° 0.4 mm 2 mps 716 mmHg 97%
19:00 +4°C° 0.4 mm 2 mps 716 mmHg 97%
20:00 +4°C° 0.4 mm 2 mps 715 mmHg 98%
21:00 +4°C° 2.6 mm 2 mps 715 mmHg 98%
22:00 +5°C° 2.6 mm 1 mps 714 mmHg 98%
23:00 +5°C° 2.6 mm 1 mps 713 mmHg 99%
Show more